W0KHZ Weather Reports


Display with metric or nautical units.
time (UTC)temp
F
wind
direction
speed
MPH
gust
MPH
rain 1hr
in
rain 24hr
in
rain mn
in
humidity
%
barometer
mb
20260507193022 59 313 4.0 13.0 0.00 0.00 0.00 36 1008.7
20260507192519 59 290 3.0 9.0 0.00 0.00 0.00 34 1008.7
20260507192036 59 293 3.0 8.0 0.00 0.00 0.00 35 1008.7
20260507191534 59 295 3.0 7.0 0.00 0.00 0.00 36 1008.9
20260507191033 59 318 4.0 9.0 0.00 0.00 0.00 34 1008.7
20260507190531 59 310 3.0 10.0 0.00 0.00 0.00 35 1008.8
20260507190029 58 239 3.0 10.0 0.00 0.00 0.00 35 1008.7
20260507185548 58 313 2.0 8.0 0.00 0.00 0.00 34 1008.8
20260507185026 58 324 5.0 16.0 0.00 0.00 0.00 34 1008.7
20260507184544 58 298 4.0 8.0 0.00 0.00 0.00 35 1008.6
20260507184042 58 307 3.0 9.0 0.00 0.00 0.00 35 1008.8
20260507183520 57 281 4.0 15.0 0.00 0.00 0.00 40 1008.8
20260507183018 57 286 2.0 9.0 0.00 0.00 0.00 40 1008.7
20260507182516 56 288 4.0 11.0 0.00 0.00 0.00 39 1008.8
20260507182034 56 301 2.0 13.0 0.00 0.00 0.00 43 1008.7
20260507181532 56 276 1.0 3.0 0.00 0.00 0.00 43 1008.8
20260507181031 56 293 2.0 3.0 0.00 0.00 0.00 42 1008.9
20260507180529 57 304 3.0 10.0 0.00 0.00 0.00 40 1009.1
20260507180027 58 324 3.0 8.0 0.00 0.00 0.00 42 1009.0
20260507175525 58 288 3.0 9.0 0.00 0.00 0.00 42 1009.1
20260507175043 57 230 2.0 7.0 0.00 0.00 0.00 45 1009.2
20260507174521 57 231 1.0 6.0 0.00 0.00 0.00 47 1009.2
20260507174020 56 250 3.0 9.0 0.00 0.00 0.00 45 1009.2
20260507173517 56 310 2.0 8.0 0.00 0.00 0.00 45 1009.2
20260507173035 55 289 2.0 7.0 0.00 0.00 0.00 46 1009.3
20260507172533 55 257 3.0 6.0 0.00 0.00 0.00 47 1009.4
20260507172031 55 275 2.0 9.0 0.00 0.00 0.00 47 1009.4
20260507171529 56 250 3.0 8.0 0.00 0.00 0.00 44 1009.6
20260507171028 56 296 3.0 9.0 0.00 0.00 0.00 46 1009.6
20260507170526 55 288 3.0 11.0 0.00 0.00 0.00 48 1009.6
20260507170025 55 283 1.0 4.0 0.00 0.00 0.00 48 1009.9
20260507165522 55 294 3.0 8.0 0.00 0.00 0.00 48 1009.8
20260507165021 55 318 2.0 6.0 0.00 0.00 0.00 48 1009.8
20260507164519 55 321 3.0 6.0 0.00 0.00 0.00 47 1009.7
20260507164036 54 254 1.0 4.0 0.00 0.00 0.00 49 1009.8
20260507163534 54 250 2.0 7.0 0.00 0.00 0.00 49 1009.9
20260507163032 54 278 2.0 8.0 0.00 0.00 0.00 50 1009.9
20260507162550 54 42 2.0 6.0 0.00 0.00 0.00 49 1009.9
20260507162028 54 316 1.0 3.0 0.00 0.00 0.00 50 1010.0
20260507161606 54 289 3.0 9.0 0.00 0.00 0.00 52 1010.1
20260507161024 53 263 1.0 2.0 0.00 0.00 0.00 55 1010.1
20260507160522 53 227 1.0 6.0 0.00 0.00 0.00 55 1010.1
20260507160020 53 225 2.0 7.0 0.00 0.00 0.00 54 1010.1
20260507155518 52 267 2.0 4.0 0.00 0.00 0.00 55 1010.1
20260507155016 52 262 2.0 4.0 0.00 0.00 0.00 55 1010.2
20260507154534 51 257 1.0 3.0 0.00 0.00 0.00 53 1010.2
20260507154032 51 280 2.0 7.0 0.00 0.00 0.00 55 1010.4
20260507153530 51 289 2.0 6.0 0.00 0.00 0.00 57 1010.4
20260507153028 50 298 2.0 4.0 0.00 0.00 0.00 57 1010.5
20260507152527 50 250 1.0 3.0 0.00 0.00 0.00 58 1010.5
20260507152025 50 270 2.0 3.0 0.00 0.00 0.00 58 1010.6
20260507151523 49 296 2.0 6.0 0.00 0.00 0.00 59 1010.7
20260507151021 49 285 2.0 6.0 0.00 0.00 0.00 62 1010.8
20260507150520 48 287 1.0 3.0 0.00 0.00 0.00 64 1010.8
20260507150017 47 282 1.0 3.0 0.00 0.00 0.00 66 1011.0
20260507145535 46 278 2.0 6.0 0.00 0.00 0.00 67 1011.0
20260507145033 45 271 0.0 2.0 0.00 0.00 0.00 71 1011.1
20260507144551 44 271 1.0 3.0 0.00 0.00 0.00 73 1011.1
20260507144029 44 0.0 0.0 0.00 0.00 0.00 74 1011.3
20260507143548 43 0.0 0.0 0.00 0.00 0.00 74 1011.3
20260507143026 42 0.0 0.0 0.00 0.00 0.00 74 1011.5
20260507142524 42 0.0 0.0 0.00 0.00 0.00 76 1011.5
20260507142023 41 0.0 0.0 0.00 0.00 0.00 77 1011.6
20260507141541 40 0.0 0.0 0.00 0.00 0.00 78 1011.8
20260507141019 39 0.0 0.0 0.00 0.00 0.00 79 1011.9
20260507140516 39 0.0 0.0 0.00 0.00 0.00 79 1011.8
20260507140034 39 0.0 0.0 0.00 0.00 0.00 80 1011.9
20260507135532 38 0.0 0.0 0.00 0.00 0.00 80 1012.0
20260507135030 38 0.0 0.0 0.00 0.00 0.00 80 1011.8
20260507134529 38 0.0 0.0 0.00 0.00 0.00 81 1011.8
20260507134027 38 0.0 0.0 0.00 0.00 0.00 81 1011.9
20260507133525 38 0.0 0.0 0.00 0.00 0.00 82 1011.6
20260507133023 37 0.0 0.0 0.00 0.00 0.00 83 1011.7
20260507132521 37 0.0 0.0 0.00 0.00 0.00 83 1011.7
20260507132020 36 0.0 0.0 0.00 0.00 0.00 84 1011.7
20260507131537 35 0.0 0.0 0.00 0.00 0.00 84 1011.7
20260507131035 35 0.0 0.0 0.00 0.00 0.00 84 1011.6
20260507130533 34 0.0 0.0 0.00 0.00 0.00 84 1011.8
20260507130052 34 0.0 0.0 0.00 0.00 0.00 85 1011.9
20260507125530 33 0.0 0.0 0.00 0.00 0.00 85 1011.9
20260507125028 33 0.0 0.0 0.00 0.00 0.00 85 1011.9
20260507124527 33 0.0 0.0 0.00 0.00 0.00 85 1011.8
20260507124025 32 0.0 0.0 0.00 0.00 0.00 85 1011.9
20260507123523 32 0.0 0.0 0.00 0.00 0.00 86 1011.8
20260507123041 31 0.0 0.0 0.00 0.00 0.00 86 1011.8
20260507122519 31 0.0 0.0 0.00 0.00 0.00 85 1011.9
20260507122016 31 0.0 0.0 0.00 0.00 0.00 85 1011.8
20260507121614 30 0.0 0.0 0.00 0.00 0.00 86 1011.9
20260507121032 30 0.0 0.0 0.00 0.00 0.00 86 1011.9
20260507120530 30 0.0 0.0 0.00 0.00 0.00 86 1012.0
20260507120029 30 0.0 0.0 0.00 0.00 0.00 86 1011.8
20260507115527 29 0.0 0.0 0.00 0.00 0.00 86 1011.9
20260507115045 29 0.0 0.0 0.00 0.00 0.00 86 1011.8
20260507114543 29 0.0 0.0 0.00 0.00 0.00 86 1012.0
20260507114022 29 0.0 0.0 0.00 0.00 0.00 86 1011.8
20260507113520 29 0.0 0.0 0.00 0.00 0.00 86 1011.8
20260507113037 29 0.0 0.0 0.00 0.00 0.00 85 1011.8
20260507112515 28 0.0 0.0 0.00 0.00 0.00 85 1011.7
20260507112034 28 0.0 0.0 0.00 0.00 0.00 85 1011.7
20260507111532 28 0.0 0.0 0.00 0.00 0.00 85 1011.7
20260507111030 28 0.0 0.0 0.00 0.00 0.00 85 1011.8
20260507110528 28 0.0 0.0 0.00 0.00 0.00 85 1011.6
20260507110047 28 0.0 0.0 0.00 0.00 0.00 85 1011.8
20260507105525 28 0.0 0.0 0.00 0.00 0.00 85 1011.8
20260507105023 28 0.0 0.0 0.00 0.00 0.00 85 1011.8
20260507104521 29 0.0 0.0 0.00 0.00 0.00 85 1011.8
20260507104019 29 0.0 0.0 0.00 0.00 0.00 85 1011.7
20260507103517 29 0.0 0.0 0.00 0.00 0.00 85 1011.7
20260507103034 28 0.0 0.0 0.00 0.00 0.00 85 1011.7
20260507102533 29 0.0 0.0 0.00 0.00 0.00 85 1011.9
20260507102031 29 0.0 0.0 0.00 0.00 0.00 85 1011.9
20260507101529 29 0.0 0.0 0.00 0.00 0.00 85 1012.0
20260507101027 29 0.0 0.0 0.00 0.00 0.00 85 1011.9
20260507100525 29 0.0 0.0 0.00 0.00 0.00 85 1011.9
20260507100023 29 0.0 0.0 0.00 0.00 0.00 85 1011.9
20260507095522 29 0.0 0.0 0.00 0.00 0.00 85 1011.9
20260507095020 29 0.0 0.0 0.00 0.00 0.00 85 1011.9
20260507094518 29 0.0 0.0 0.00 0.00 0.00 85 1012.0
20260507094015 29 0.0 0.0 0.00 0.00 0.00 85 1012.1
20260507093534 29 0.0 0.0 0.00 0.00 0.00 84 1012.1
20260507093032 29 0.0 0.0 0.00 0.00 0.00 84 1012.2
20260507092550 29 0.0 0.0 0.00 0.00 0.00 84 1012.1
20260507092029 29 0.0 0.0 0.00 0.00 0.00 84 1012.2
20260507091526 30 0.0 0.0 0.00 0.00 0.00 84 1012.2
20260507091025 30 0.0 0.0 0.00 0.00 0.00 84 1012.2
20260507090523 30 0.0 0.0 0.00 0.00 0.00 84 1012.2
20260507090021 30 0.0 0.0 0.00 0.00 0.00 83 1012.3
20260507085520 30 0.0 0.0 0.00 0.00 0.00 83 1012.3
20260507085058 30 0.0 0.0 0.00 0.00 0.00 83 1012.5
20260507084535 30 0.0 0.0 0.00 0.00 0.00 83 1012.5
20260507084034 30 0.0 0.0 0.00 0.00 0.00 83 1012.6
20260507083552 30 0.0 0.0 0.00 0.00 0.00 83 1012.6
20260507083030 30 0.0 0.0 0.00 0.00 0.00 83 1012.8
20260507082528 30 0.0 0.0 0.00 0.00 0.00 83 1012.7
20260507082026 30 0.0 0.0 0.00 0.00 0.00 83 1012.5
20260507081525 30 0.0 0.0 0.00 0.00 0.00 83 1012.7
20260507081023 30 0.0 0.0 0.00 0.00 0.00 83 1012.6
20260507080521 30 0.0 0.0 0.00 0.00 0.00 83 1012.7
20260507080019 30 0.0 0.0 0.00 0.00 0.00 82 1012.7
20260507075516 30 0.0 0.0 0.00 0.00 0.00 82 1012.8
20260507075054 30 0.0 0.0 0.00 0.00 0.00 82 1012.7
20260507074533 30 0.0 0.0 0.00 0.00 0.00 82 1012.8
20260507074031 30 0.0 0.0 0.00 0.00 0.00 82 1012.7
20260507073529 30 0.0 0.0 0.00 0.00 0.00 82 1012.7
20260507073027 30 0.0 0.0 0.00 0.00 0.00 82 1012.9
20260507072526 30 0.0 0.0 0.00 0.00 0.00 82 1012.9
20260507072024 30 0.0 0.0 0.00 0.00 0.00 82 1012.8
20260507071522 30 0.0 0.0 0.00 0.00 0.00 82 1012.8
20260507071020 30 0.0 0.0 0.00 0.00 0.00 82 1012.8
20260507070518 30 0.0 0.0 0.00 0.00 0.00 82 1012.9
20260507070016 30 0.0 0.0 0.00 0.00 0.00 82 1012.9
20260507065534 30 0.0 0.0 0.00 0.00 0.00 82 1012.9
20260507065032 30 0.0 0.0 0.00 0.00 0.00 81 1012.8
20260507064530 30 0.0 0.0 0.00 0.00 0.00 81 1012.7
20260507064028 29 0.0 0.0 0.00 0.00 0.00 81 1012.9
20260507063546 29 0.0 0.0 0.00 0.00 0.00 82 1013.1
20260507063025 29 0.0 0.0 0.00 0.00 0.00 82 1013.0
20260507062523 29 0.0 0.0 0.00 0.00 0.00 81 1013.0
20260507062021 29 0.0 0.0 0.00 0.00 0.00 81 1013.1
20260507061539 29 0.0 0.0 0.00 0.00 0.00 81 1013.1
20260507061017 29 0.0 0.0 0.00 0.00 0.00 81 1013.1
20260507060535 29 0.0 0.0 0.00 0.00 0.00 81 1013.2
20260507060033 29 0.0 0.0 0.00 0.00 0.00 82 1013.3
20260507055531 29 0.0 0.0 0.00 0.00 0.00 81 1013.4
20260507055030 29 0.0 0.0 0.00 0.00 0.00 80 1013.3
20260507054528 29 0.0 0.0 0.00 0.00 0.00 79 1013.4
20260507054026 30 0.0 0.0 0.00 0.00 0.00 79 1013.4
20260507053544 30 0.0 0.0 0.00 0.00 0.00 80 1013.3
20260507053023 30 0.0 0.0 0.00 0.00 0.00 80 1013.4
20260507052521 30 0.0 0.0 0.00 0.00 0.00 80 1013.4
20260507052019 30 0.0 0.0 0.00 0.00 0.00 80 1013.4
20260507051536 30 0.0 0.0 0.00 0.00 0.00 80 1013.4
20260507051034 30 0.0 0.0 0.00 0.00 0.00 80 1013.5
20260507050533 30 0.0 0.0 0.00 0.00 0.00 80 1013.5
20260507050031 30 0.0 0.0 0.00 0.00 0.00 79 1013.5
20260507045529 31 0.0 0.0 0.00 0.00 0.00 78 1013.4
20260507045027 31 0.0 0.0 0.00 0.00 0.00 77 1013.6
20260507044526 31 0.0 0.0 0.00 0.00 0.00 77 1013.6
20260507044024 31 0.0 0.0 0.00 0.00 0.00 78 1013.6
20260507043522 31 0.0 0.0 0.00 0.00 0.00 77 1013.5
20260507043020 31 0.0 0.0 0.00 0.00 0.00 78 1013.5
20260507042518 31 0.0 0.0 0.00 0.00 0.00 77 1013.5
20260507042016 32 0.0 0.0 0.00 0.00 0.00 77 1013.6
20260507041534 32 0.0 0.0 0.00 0.00 0.00 76 1013.7
20260507041032 32 0.0 0.0 0.00 0.00 0.00 76 1013.8
20260507040530 32 0.0 0.0 0.00 0.00 0.00 75 1013.7
20260507040029 33 0.0 0.0 0.00 0.00 0.00 74 1013.9
20260507035526 33 0.0 0.0 0.00 0.00 0.00 73 1013.9
20260507035025 33 0.0 0.0 0.00 0.00 0.00 73 1013.8
20260507034543 33 0.0 0.0 0.00 0.00 0.00 73 1013.9
20260507034041 33 0.0 0.0 0.00 0.00 0.00 74 1014.0
20260507033519 33 0.0 0.0 0.00 0.00 0.00 74 1014.0
20260507033016 33 0.0 0.0 0.00 0.00 0.00 71 1014.0
20260507032534 33 0.0 0.0 0.00 0.00 0.00 72 1013.9
20260507032032 33 0.0 0.0 0.00 0.00 0.00 72 1014.1
20260507031531 34 0.0 0.0 0.00 0.00 0.00 72 1014.2
20260507031029 34 0.0 0.0 0.00 0.00 0.00 72 1014.2
20260507030527 34 0.0 0.0 0.00 0.00 0.00 72 1014.1
20260507030025 34 0.0 0.0 0.00 0.00 0.00 70 1014.2
20260507025523 34 0.0 0.0 0.00 0.00 0.00 71 1014.1
20260507025021 34 0.0 0.0 0.00 0.00 0.00 70 1014.1
20260507024519 34 0.0 0.0 0.00 0.00 0.00 70 1014.2
20260507024016 35 0.0 0.0 0.00 0.00 0.00 70 1014.2
20260507023554 35 0.0 0.0 0.00 0.00 0.00 70 1014.0
20260507023032 35 0.0 0.0 0.00 0.00 0.00 69 1014.0
20260507022530 35 0.0 0.0 0.00 0.00 0.00 68 1014.0
20260507022028 36 0.0 0.0 0.00 0.00 0.00 68 1014.0
20260507021546 36 0.0 0.0 0.00 0.00 0.00 67 1014.1
20260507021024 37 0.0 0.0 0.00 0.00 0.00 65 1014.0
20260507020522 37 0.0 0.0 0.00 0.00 0.00 66 1013.9
20260507020020 37 0.0 0.0 0.00 0.00 0.00 64 1014.0
20260507015517 38 0.0 0.0 0.00 0.00 0.00 62 1013.8
20260507015035 38 0.0 0.0 0.00 0.00 0.00 60 1013.8
20260507014533 39 0.0 0.0 0.00 0.00 0.00 59 1013.8
20260507014031 39 0.0 0.0 0.00 0.00 0.00 58 1013.8
20260507013529 40 0.0 0.0 0.00 0.00 0.00 58 1013.7
20260507013026 40 0.0 0.0 0.00 0.00 0.00 56 1013.7
20260507012525 41 0.0 0.0 0.00 0.00 0.00 55 1013.7
20260507012022 41 0.0 0.0 0.00 0.00 0.00 55 1013.6
20260507011521 42 0.0 0.0 0.00 0.00 0.00 53 1013.6
20260507011039 42 0.0 0.0 0.00 0.00 0.00 52 1013.6
20260507010515 42 0.0 0.0 0.00 0.00 0.00 51 1013.6
20260507010053 43 0.0 0.0 0.00 0.00 0.00 51 1013.6
20260507005532 43 0.0 0.0 0.00 0.00 0.00 50 1013.7
20260507005029 43 0.0 0.0 0.00 0.00 0.00 50 1013.7
20260507004528 44 0.0 0.0 0.00 0.00 0.00 50 1013.7
20260507004026 44 306 0.0 2.0 0.00 0.00 0.00 50 1013.7
20260507003524 44 306 0.0 2.0 0.00 0.00 0.00 50 1013.7
20260507003042 44 306 1.0 3.0 0.00 0.00 0.00 49 1013.9
20260507002520 45 294 1.0 6.0 0.00 0.00 0.00 49 1013.8
20260507002018 45 330 2.0 4.0 0.00 0.00 0.00 49 1013.7
20260507001516 45 309 1.0 3.0 0.00 0.00 0.00 49 1013.8
20260507001114 45 304 2.0 8.0 0.00 0.00 0.00 48 1013.8
20260507000552 45 299 2.0 7.0 0.00 0.00 0.00 48 1013.7
20260507000030 45 335 3.0 7.0 0.00 0.00 0.00 48 1013.7
20260506235528 45 299 3.0 11.0 0.00 0.00 0.00 48 1013.7
20260506235026 45 288 3.0 7.0 0.00 0.00 0.00 48 1013.7
20260506234545 45 308 2.0 6.0 0.00 0.00 0.00 49 1013.7
20260506234023 45 304 2.0 4.0 0.00 0.00 0.00 48 1013.6
20260506233521 45 307 3.0 9.0 0.00 0.00 0.00 48 1013.7
20260506233019 45 318 3.0 9.0 0.00 0.00 0.00 48 1013.7
20260506232536 45 298 2.0 6.0 0.00 0.00 0.00 48 1013.7
20260506232035 45 307 1.0 3.0 0.00 0.00 0.00 48 1013.9
20260506231533 45 311 2.0 10.0 0.00 0.00 0.00 48 1013.9
20260506231051 45 291 2.0 6.0 0.00 0.00 0.00 48 1013.8
20260506230529 45 288 2.0 6.0 0.00 0.00 0.00 48 1014.0
20260506230027 45 333 2.0 6.0 0.00 0.00 0.00 48 1013.9
20260506225525 45 297 3.0 9.0 0.00 0.00 0.00 47 1014.0
20260506225024 45 308 2.0 8.0 0.00 0.00 0.00 48 1014.1
20260506224522 46 323 3.0 7.0 0.00 0.00 0.00 49 1014.0
20260506224020 45 320 2.0 8.0 0.00 0.00 0.00 48 1014.0
20260506223518 45 306 2.0 7.0 0.00 0.00 0.00 48 1014.0
20260506223016 46 300 3.0 8.0 0.00 0.00 0.00 48 1014.0
20260506222534 46 313 3.0 9.0 0.00 0.00 0.00 48 1014.0
20260506222032 46 325 4.0 14.0 0.00 0.00 0.00 48 1014.0
20260506221530 46 303 3.0 13.0 0.00 0.00 0.00 48 1014.0
20260506221048 46 312 3.0 7.0 0.00 0.00 0.00 47 1014.0
20260506220527 46 313 4.0 11.0 0.00 0.00 0.00 47 1013.9
20260506220045 46 293 3.0 9.0 0.00 0.00 0.00 48 1014.0
20260506215523 45 313 2.0 6.0 0.00 0.00 0.00 47 1013.9
20260506215042 45 320 4.0 11.0 0.00 0.00 0.00 47 1014.0
20260506214520 45 288 3.0 9.0 0.00 0.00 0.00 47 1014.0
20260506214017 45 298 2.0 4.0 0.00 0.00 0.00 47 1014.0
20260506213535 45 263 3.0 9.0 0.00 0.00 0.00 48 1014.0
20260506213114 45 308 2.0 7.0 0.00 0.00 0.00 47 1014.2
20260506212532 45 312 2.0 6.0 0.00 0.00 0.00 48 1014.0
20260506212030 45 326 3.0 6.0 0.00 0.00 0.00 47 1014.1
20260506211528 45 296 2.0 8.0 0.00 0.00 0.00 47 1014.1
20260506211046 46 314 4.0 11.0 0.00 0.00 0.00 48 1014.0
20260506210524 46 319 3.0 8.0 0.00 0.00 0.00 49 1014.1
20260506210023 45 312 3.0 8.0 0.00 0.00 0.00 49 1014.1
20260506205521 45 324 2.0 6.0 0.00 0.00 0.00 48 1014.2
20260506205019 45 311 3.0 7.0 0.00 0.00 0.00 48 1014.2
20260506204517 45 327 2.0 7.0 0.00 0.00 0.00 47 1014.4
20260506204034 45 316 3.0 10.0 0.00 0.00 0.00 48 1014.3
20260506203533 45 294 3.0 11.0 0.00 0.00 0.00 48 1014.4
20260506203031 45 319 4.0 9.0 0.00 0.00 0.00 49 1014.5
20260506202529 45 308 3.0 10.0 0.00 0.00 0.00 49 1014.4
20260506202027 45 321 3.0 10.0 0.00 0.00 0.00 49 1014.5
20260506201525 45 295 2.0 4.0 0.00 0.00 0.00 49 1014.5
20260506201023 45 263 2.0 6.0 0.00 0.00 0.00 48 1014.5
20260506200522 45 302 3.0 9.0 0.00 0.00 0.00 48 1014.6
20260506200020 45 322 3.0 8.0 0.00 0.00 0.00 49 1014.5
20260506195518 45 301 3.0 8.0 0.00 0.00 0.00 48 1014.5
20260506195035 45 297 3.0 11.0 0.00 0.00 0.00 48 1014.4
20260506194533 45 285 2.0 8.0 0.00 0.00 0.00 48 1014.5
20260506194032 45 281 2.0 7.0 0.00 0.00 0.00 48 1014.6
20260506193530 45 326 2.0 6.0 0.00 0.00 0.00 48 1014.3